TIME,DELAY(SENSOR),PRES,OXYGEN,RAWTEMP,T(OPTODE),TCPHASE,FLUOR,BETA(BETA700),BETA(BETA412),BETA(BETA440),CDOM,C(CSC),ED(ED412.40),ED(ED444.00),ED(ED489.70),ED(ED554.30),LU(LU411.80),LU(LU443.40),LU(LU489.60),LU(LU554.10),COMP,TILTX,TILTY,CHECK
1383537501,5810,814.6199951171875000,48.1872215270996100,653.3433837890625000,4.8468761444091800,53.7165908813476560,53,99,83,78,78,15280,2147752621,2147426029,2148008338,2147875318,2147640274,2147056164,2148257801,2147195766,85,4,13,11518
1383541097,5810,870.4099731445312000,52.3448905944824200,660.3568725585938000,4.6162219047546390,53.2250709533691400,52,96,85,78,78,15282,2147750820,2147422208,2148014436,2147874102,2147639204,2147056722,2148255716,2147196809,2535,3,13,10159
1383544697,5807,869.3200073242188000,53.7812690734863300,662.4768066406250000,4.5463981628417970,53.0574302673339840,53,97,86,78,79,15281,2147756662,2147426020,2148008649,2147873828,2147638756,2147055140,2148263661,2147195410,2701,3,13,48502
1383548297,5808,899.8099975585938000,54.7265281677246100,665.1494140625000000,4.4583001136779785,52.9672088623046900,52,97,83,79,78,15286,2147761280,2147424786,2148012681,2147871597,2147640082,2147051446,2148260032,2147194806,2296,3,13,29774
1383551897,5810,897.2899780273438000,54.6233901977539060,665.3856201171875000,4.4505081176757810,52.9820594787597660,53,99,84,80,78,15279,2147754477,2147424082,2148012571,2147874441,2147638153,2147056274,2148262418,2147199954,3563,4,13,10608
1383555497,5810,909.8200073242188000,54.2408485412597660,665.9979248046875000,4.4303112030029300,53.0407295227050800,52,103,85,77,78,15280,2147753481,2147426157,2148011008,2147875300,2147638043,2147056649,2148265124,2147200566,455,4,13,49506
1383559097,5806,934.2600097656250000,55.3303413391113300,667.1093139648438000,4.3936409950256350,52.9128303527832000,53,97,85,78,78,15278,2147750912,2147423515,2148010624,2147876205,2147641216,2147055378,2148264429,2147195757,3589,3,14,9856
1383562697,5810,928.2600097656250000,55.4077911376953100,667.7529296875000000,4.3723998069763180,52.9085388183593750,52,98,87,78,78,15278,2147752832,2147424521,2148010843,2147875812,2147641069,2147051986,2148264603,2147197924,3294,4,13,22197
1383566297,5813,934.5200195312500000,56.1003990173339840,668.7963867187500000,4.3379478454589840,52.8340110778808600,52,98,86,76,77,15282,2147751314,2147425481,2148014445,2147874450,2147636946,2147056365,2148262445,2147198043,279,4,13,29802
1383569897,5808,964.4699707031250000,57.0544509887695300,670.6362304687500000,4.2771778106689450,52.7352905273437500,52,97,83,79,78,15279,2147753188,2147424594,2148010486,2147872182,2147638144,2147050852,2148266688,2147200356,182,3,13,25782
1383573497,5809,956.2199707031250000,57.3459396362304700,671.5819702148438000,4.2459239959716800,52.7056999206543000,52,98,86,78,77,15282,2147754880,2147426285,2148011785,2147872566,2147638116,2147053165,2148265636,2147197485,3236,3,13,10829
1383577097,5807,962.3099975585938000,57.3726806640625000,670.9140014648438000,4.2680001258850100,52.6926994323730500,52,97,84,77,78,15283,2147757083,2147424164,2148012333,2147875465,2147638272,2147051794,2148264301,2147195456,106,4,13,46922
1383580697,5809,989.4799804687500000,57.8760490417480500,673.5379028320312000,4.1812567710876465,52.6631507873535160,52,96,82,78,78,15281,2147756736,2147424155,2148014784,2147876973,2147641618,2147051126,2148262710,2147193572,3525,4,13,61152
1383584297,5811,992.0999755859375000,57.8671188354492200,674.2061767578125000,4.1591510772705080,52.6711311340332000,52,96,82,78,77,15280,2147756251,2147423652,2148010962,2147873179,2147637842,2147052086,2148262628,2147197696,280,4,13,27947
1383587897,5810,996.0700073242188000,58.0683212280273440,673.6981811523438000,4.1759548187255860,52.6417808532714840,52,97,86,78,78,15283,2147754185,2147423844,2148010486,2147876013,2147641627,2147056411,2148268726,2147200969,40,4,13,31729
1383591497,5808,999.7500000000000000,57.6111297607421900,672.7064819335938000,4.2087478637695310,52.6880416870117200,52,99,83,77,78,15278,2147754980,2147424722,2148013942,2147871414,2147636800,2147047936,2148258843,2147200100,170,4,13,61666
1383595097,5806,997.5000000000000000,57.7142410278320300,673.6198730468750000,4.1785430908203125,52.6881790161132800,52,95,86,77,79,15279,2147756352,2147428242,2148014290,2147875026,2147635273,2147050925,2148260132,2147199003,3511,4,13,27877
1383598697,5810,995.9500122070312000,57.9068412780761700,674.1478881835938000,4.1610770225524900,52.6663017272949200,52,96,84,78,78,15278,2147755227,2147425947,2148011209,2147878107,2147635547,2147056310,2148265225,2147199515,55,4,13,54188
1383602297,5806,1001.6799926757812000,58.0525207519531250,673.1945190429688000,4.1926159858703610,52.6348304748535160,51,95,86,78,79,15281,2147752393,2147426441,2148013257,2147874697,2147635474,2147051748,2148262208,2147199588,225,4,13,46965
1383605897,5809,1008.6500244140625000,57.6011085510253900,672.2753906250000000,4.2230029106140140,52.6820297241210940,51,97,83,78,77,15282,2147756617,2147428233,2148015332,2147875410,2147639076,2147049344,2148260480,2147197330,2921,3,13,13343
1383609497,5806,1009.8900146484375000,56.7848205566406250,671.1287841796875000,4.2609000205993650,52.7746696472168000,52,95,85,77,78,15277,2147755273,2147425709,2148012699,2147874541,2147638390,2147055094,2148264429,2147199981,3272,4,13,4688
1383613097,5810,1005.0999755859375000,56.6370811462402340,671.8482055664062000,4.2371249198913570,52.8021507263183600,52,96,86,79,79,15273,2147755081,2147425462,2148011227,2147873828,2147638902,2147049718,2148259858,2147197558,3536,3,13,59674
1383616697,5808,1009.5599975585938000,57.0265617370605500,671.8240966796875000,4.2379231452941895,52.7502403259277340,52,95,82,76,79,15277,2147755785,2147421659,2148010166,2147877449,2147642029,2147048950,2148265993,2147198326,3446,4,13,57603
1383620297,5806,1012.0900268554688000,56.0566215515136700,671.5921020507812000,4.2455902099609375,52.8746604919433600,52,96,88,78,78,15281,2147750125,2147422710,2148011858,2147874806,2147636278,2147053248,2148265536,2147201014,263,4,13,16699
1383623897,5808,1003.4299926757812000,57.2647399902343750,672.5687866210938000,4.2133049964904785,52.7273597717285160,51,96,86,79,78,15279,2147756864,2147421906,2148012059,2147874669,2147635867,2147052269,2148262436,2147199168,308,4,13,31203
1383627497,5812,1003.4299926757812000,56.9394989013671900,673.4547119140625000,4.1840081214904785,52.7816505432128900,51,97,81,78,79,15278,2147755885,2147424082,2148012653,2147876233,2147636443,2147053275,2148265974,2147198674,31,4,13,26686
1383631097,5806,1005.4899902343750000,57.1005096435546900,673.3759155273438000,4.1866130828857420,52.7635993957519500,52,96,88,78,78,15276,2147755574,2147423241,2148012032,2147872841,2147642240,2147052617,2148262006,2147199250,81,4,13,36667
1383634697,5811,998.1199951171875000,57.4444503784179700,674.2355957031250000,4.1581778526306150,52.7291297912597660,53,95,83,78,78,15278,2147754624,2147426441,2148013037,2147876050,2147641965,2147048804,2148265600,2147198034,347,4,13,60257
1383638297,5806,993.5300292968750000,58.2209205627441400,675.6270751953125000,4.1121330261230470,52.6481895446777340,52,98,85,78,77,15279,2147753334,2147422665,2148014226,2147872685,2147640429,2147050715,2148269613,2147201161,3435,4,13,50305
1383641897,5808,997.1900024414062000,58.5872001647949200,675.6602172851562000,4.1110382080078125,52.5992012023925800,52,96,87,77,78,15274,2147757440,2147423378,2148011154,2147875620,2147639862,2147051318,2148266130,2147201243,1349,4,13,32778
1383645497,5811,1007.9299926757812000,58.3078308105468750,674.8687133789062000,4.1372318267822270,52.6278190612793000,52,96,84,78,78,15277,2147755684,2147423643,2148008713,2147875172,2147640484,2147052608,2148264301,2147198153,3233,4,13,12695
1383649097,5811,1014.5000000000000000,57.5042610168457000,672.6394042968750000,4.2109680175781250,52.6976394653320300,51,97,85,77,78,15279,2147754057,2147427556,2148014555,2147870994,2147636882,2147053065,2148264118,2147197796,460,4,13,63708
1383652697,5812,1012.1400146484375000,56.9558906555175800,671.9224243164062000,4.2346739768981930,52.7605094909668000,51,96,84,78,78,15259,2147751661,2147422902,2148013568,2147873920,2147638345,2147055670,2148265170,2147198400,71,4,13,49029
1383656297,5809,1010.8099975585938000,56.8406791687011700,672.5640258789062000,4.2134628295898440,52.7875404357910160,52,95,87,78,78,15262,2147755474,2147425280,2148013074,2147876617,2147638637,2147055012,2148269275,2147196059,248,4,13,4632
1383659897,5809,1000.5999755859375000,57.2301406860351560,673.2633056640625000,4.1903381347656250,52.7455215454101560,52,97,83,77,78,15263,2147753682,2147419181,2148012096,2147873682,2147637412,2147056265,2148266386,2147198957,63,4,13,45605
1383663497,5807,1013.2800292968750000,57.1873512268066400,672.7111816406250000,4.2085947990417480,52.7395782470703100,52,97,85,79,79,15269,2147753380,2147423570,2148014646,2147873718,2147637769,2147058121,2148265170,2147198253,201,4,13,32255
1383667097,5811,1001.2100219726562000,57.0993003845214840,672.7025146484375000,4.2088809013366700,52.7525901794433600,51,96,85,79,77,15269,2147754358,2147424228,2148013860,2147876406,2147641499,2147054244,2148265142,2147196525,3559,4,13,12663
1383670697,5811,995.8599853515625000,58.2706108093261700,675.5986938476562000,4.1130728721618650,52.6428489685058600,51,96,83,77,78,15269,2147755602,2147421842,2148016877,2147875136,2147639734,2147058468,2148265755,2147199305,1407,4,13,52599
1383674297,5810,1012.5599975585938000,58.6795692443847660,675.1179199218750000,4.1289839744567870,52.5818099975585940,52,97,86,78,77,15269,2147755629,2147425060,2148013714,2147874532,2147637412,2147053165,2148268763,2147199817,445,3,13,5678
1383677897,5805,1013.0399780273438000,58.1113700866699200,673.7883300781250000,4.1729760169982910,52.6346282958984400,52,98,86,78,79,15269,2147754422,2147425673,2148011474,2147874669,2147634980,2147047835,2148267510,2147202185,3505,4,13,47691
1383681356,5810,1005.7899780273438000,57.0248908996582000,673.5524291992188000,4.1807770729064940,52.7731895446777340,52,97,85,77,78,15281,2147751780,2147424886,2148012708,2147874605,2147637897,2147052352,2148265691,2147196516,3136,4,13,42229
